Time,TemperatureF,DewpointF,PressureIn,WindDirection,WindDirectionDegrees,WindSpeedMPH,WindSpeedGustMPH,Humidity,HourlyPrecipIn,Conditions,Clouds,dailyrainin,SoftwareType,DateUTC
2014-02-24 00:02:00,-7.6,-13.1,30.07,East,90,0.0,-999.0,76,-99.99,,,0.00,Acu-Link.com,2014-02-24 08:02:00,
2014-02-24 00:17:00,-7.6,-12.9,30.08,East,90,0.0,-999.0,77,-99.99,,,0.00,Acu-Link.com,2014-02-24 08:17:00,
2014-02-24 00:32:00,-7.6,-13.1,30.08,East,90,0.0,-999.0,76,-99.99,,,0.00,Acu-Link.com,2014-02-24 08:32:00,
2014-02-24 00:47:00,-9.4,-15.1,30.09,South,180,0.0,-999.0,75,-99.99,,,0.00,Acu-Link.com,2014-02-24 08:47:00,
2014-02-24 01:02:00,-9.4,-15.1,30.09,ENE,67,0.0,-999.0,75,-99.99,,,0.00,Acu-Link.com,2014-02-24 09:02:00,
2014-02-24 01:17:00,-9.4,-14.6,30.09,NE,45,1.1,-999.0,77,-99.99,,,0.00,Acu-Link.com,2014-02-24 09:17:00,
2014-02-24 01:32:00,-9.4,-14.9,30.09,SSE,157,0.0,-999.0,76,-99.99,,,0.00,Acu-Link.com,2014-02-24 09:32:00,
2014-02-24 01:48:00,-11.2,-17.1,30.10,SSW,202,0.0,-999.0,74,-99.99,,,0.00,Acu-Link.com,2014-02-24 09:48:00,
2014-02-24 02:03:00,-11.2,-17.1,30.10,ESE,112,0.0,-999.0,74,-99.99,,,0.00,Acu-Link.com,2014-02-24 10:03:00,
2014-02-24 02:18:00,-11.2,-17.1,30.10,SE,135,0.0,-999.0,74,-99.99,,,0.00,Acu-Link.com,2014-02-24 10:18:00,
2014-02-24 02:33:00,-13.0,-18.9,30.10,SE,135,0.0,-999.0,74,-99.99,,,0.00,Acu-Link.com,2014-02-24 10:33:00,
2014-02-24 02:48:00,-13.0,-18.9,30.11,ESE,112,0.0,-999.0,74,-99.99,,,0.00,Acu-Link.com,2014-02-24 10:48:00,
2014-02-24 03:03:00,-13.0,-18.9,30.11,SE,135,0.0,-999.0,74,-99.99,,,0.00,Acu-Link.com,2014-02-24 11:03:00,
2014-02-24 03:18:00,-13.0,-19.1,30.10,East,90,0.0,-999.0,73,-99.99,,,0.00,Acu-Link.com,2014-02-24 11:18:00,
2014-02-24 03:33:00,-14.8,-20.9,30.11,SE,135,0.0,-999.0,73,-99.99,,,0.00,Acu-Link.com,2014-02-24 11:33:00,
2014-02-24 03:48:00,-14.8,-20.9,30.11,East,90,0.0,-999.0,73,-99.99,,,0.00,Acu-Link.com,2014-02-24 11:48:00,
2014-02-24 04:03:00,-14.8,-20.9,30.11,East,90,0.0,-999.0,73,-99.99,,,0.00,Acu-Link.com,2014-02-24 12:03:00,
2014-02-24 04:18:00,-14.8,-20.9,30.11,East,90,0.0,-999.0,73,-99.99,,,0.00,Acu-Link.com,2014-02-24 12:18:00,
2014-02-24 04:33:00,-14.8,-20.9,30.12,East,90,0.0,-999.0,73,-99.99,,,0.00,Acu-Link.com,2014-02-24 12:33:00,
2014-02-24 04:48:00,-14.8,-21.1,30.12,East,90,0.0,-999.0,72,-99.99,,,0.00,Acu-Link.com,2014-02-24 12:48:00,
2014-02-24 05:03:00,-14.8,-21.1,30.12,East,90,0.0,-999.0,72,-99.99,,,0.00,Acu-Link.com,2014-02-24 13:03:00,
2014-02-24 05:18:00,-16.6,-22.9,30.12,East,90,0.0,-999.0,72,-99.99,,,0.00,Acu-Link.com,2014-02-24 13:18:00,
2014-02-24 05:33:00,-16.6,-22.9,30.12,East,90,0.0,-999.0,72,-99.99,,,0.00,Acu-Link.com,2014-02-24 13:33:00,
2014-02-24 05:48:00,-16.6,-23.2,30.12,East,90,0.0,-999.0,71,-99.99,,,0.00,Acu-Link.com,2014-02-24 13:48:00,
2014-02-24 06:03:00,-16.6,-23.2,30.12,East,90,0.0,-999.0,71,-99.99,,,0.00,Acu-Link.com,2014-02-24 14:03:00,
2014-02-24 06:18:00,-16.6,-23.2,30.12,East,90,0.0,-999.0,71,-99.99,,,0.00,Acu-Link.com,2014-02-24 14:18:00,
2014-02-24 06:33:00,-16.6,-23.2,30.12,East,90,0.0,-999.0,71,-99.99,,,0.00,Acu-Link.com,2014-02-24 14:33:00,
2014-02-24 06:48:00,-16.6,-23.2,30.13,East,90,0.0,-999.0,71,-99.99,,,0.00,Acu-Link.com,2014-02-24 14:48:00,
2014-02-24 07:03:00,-16.6,-23.2,30.12,East,90,0.0,-999.0,71,-99.99,,,0.00,Acu-Link.com,2014-02-24 15:03:00,
2014-02-24 07:18:00,-18.4,-25.2,30.13,East,90,0.0,-999.0,70,-99.99,,,0.00,Acu-Link.com,2014-02-24 15:18:00,
2014-02-24 07:33:00,-16.6,-23.4,30.14,East,90,0.0,-999.0,70,-99.99,,,0.00,Acu-Link.com,2014-02-24 15:33:00,
2014-02-24 07:48:00,-16.6,-23.2,30.14,East,90,0.0,-999.0,71,-99.99,,,0.00,Acu-Link.com,2014-02-24 15:48:00,
2014-02-24 08:03:00,-16.6,-23.2,30.14,WSW,247,0.0,-999.0,71,-99.99,,,0.00,Acu-Link.com,2014-02-24 16:03:00,
2014-02-24 08:18:00,-14.8,-21.4,30.15,SSW,202,0.0,-999.0,71,-99.99,,,0.00,Acu-Link.com,2014-02-24 16:18:00,
2014-02-24 08:33:00,-13.0,-19.7,30.15,SSW,202,0.0,-999.0,71,-99.99,,,0.00,Acu-Link.com,2014-02-24 16:33:00,
2014-02-24 08:48:00,-11.2,-18.2,30.15,South,180,0.0,-999.0,70,-99.99,,,0.00,Acu-Link.com,2014-02-24 16:48:00,
2014-02-24 09:03:00,-7.6,-14.7,30.15,SSW,202,2.0,-999.0,70,-99.99,,,0.00,Acu-Link.com,2014-02-24 17:03:00,
2014-02-24 09:18:00,-7.6,-14.7,30.15,SSW,202,0.0,-999.0,70,-99.99,,,0.00,Acu-Link.com,2014-02-24 17:18:00,
2014-02-24 09:33:00,-5.8,-13.0,30.15,SSW,202,0.0,-999.0,70,-99.99,,,0.00,Acu-Link.com,2014-02-24 17:33:00,
2014-02-24 09:48:00,-4.0,-11.3,30.15,SW,225,2.0,-999.0,70,-99.99,,,0.00,Acu-Link.com,2014-02-24 17:48:00,
2014-02-24 10:03:00,-0.4,-7.8,30.15,West,270,2.7,-999.0,70,-99.99,,,0.00,Acu-Link.com,2014-02-24 18:03:00,
2014-02-24 10:18:00,1.4,-6.7,30.15,SW,225,3.1,-999.0,68,-99.99,,,0.00,Acu-Link.com,2014-02-24 18:18:00,
2014-02-24 10:33:00,1.4,-7.6,30.15,WSW,247,3.1,-999.0,65,-99.99,,,0.00,Acu-Link.com,2014-02-24 18:33:00,
2014-02-24 10:48:00,5.0,-5.8,30.15,West,270,2.7,-999.0,60,-99.99,,,0.00,Acu-Link.com,2014-02-24 18:48:00,
2014-02-24 11:03:00,6.8,-4.8,30.14,WSW,247,2.0,-999.0,58,-99.99,,,0.00,Acu-Link.com,2014-02-24 19:03:00,
2014-02-24 11:19:00,8.6,-3.1,30.15,South,180,2.7,-999.0,58,-99.99,,,0.00,Acu-Link.com,2014-02-24 19:19:00,
2014-02-24 11:34:00,10.4,-2.9,30.15,SSW,202,2.0,-999.0,54,-99.99,,,0.00,Acu-Link.com,2014-02-24 19:34:00,
2014-02-24 11:49:00,12.2,-2.0,30.15,SSW,202,2.0,-999.0,52,-99.99,,,0.00,Acu-Link.com,2014-02-24 19:49:00,
2014-02-24 12:04:00,14.0,-1.2,30.14,West,270,1.1,-999.0,50,-99.99,,,0.00,Acu-Link.com,2014-02-24 20:04:00,
2014-02-24 12:19:00,17.6,1.7,30.14,West,270,1.1,-999.0,49,-99.99,,,0.00,Acu-Link.com,2014-02-24 20:19:00,
2014-02-24 12:34:00,19.4,2.0,30.13,South,180,2.0,-999.0,46,-99.99,,,0.00,Acu-Link.com,2014-02-24 20:34:00,
2014-02-24 12:50:00,21.2,3.2,30.13,WSW,247,2.7,-999.0,45,-99.99,,,0.00,Acu-Link.com,2014-02-24 20:50:00,
2014-02-24 13:05:00,19.4,2.0,30.12,NNW,337,2.0,-999.0,46,-99.99,,,0.00,Acu-Link.com,2014-02-24 21:05:00,
2014-02-24 13:20:00,19.4,0.1,30.12,SSE,157,1.6,-999.0,42,-99.99,,,0.00,Acu-Link.com,2014-02-24 21:20:00,
2014-02-24 13:36:00,19.4,1.6,30.11,South,180,1.6,-999.0,45,-99.99,,,0.00,Acu-Link.com,2014-02-24 21:36:00,
2014-02-24 13:51:00,21.2,3.2,30.12,East,90,0.0,-999.0,45,-99.99,,,0.00,Acu-Link.com,2014-02-24 21:51:00,
2014-02-24 14:06:00,23.0,3.9,30.11,NNE,22,2.0,-999.0,43,-99.99,,,0.00,Acu-Link.com,2014-02-24 22:06:00,
2014-02-24 14:21:00,24.8,4.5,30.11,West,270,0.0,-999.0,41,-99.99,,,0.00,Acu-Link.com,2014-02-24 22:21:00,
2014-02-24 14:37:00,23.0,3.4,30.11,NNW,337,1.6,-999.0,42,-99.99,,,0.00,Acu-Link.com,2014-02-24 22:37:00,
2014-02-24 14:52:00,21.2,1.7,30.11,West,270,1.6,-999.0,42,-99.99,,,0.00,Acu-Link.com,2014-02-24 22:52:00,
2014-02-24 15:07:00,23.0,3.9,30.12,NNW,337,0.0,-999.0,43,-99.99,,,0.00,Acu-Link.com,2014-02-24 23:07:00,
2014-02-24 15:22:00,23.0,3.4,30.11,SSW,202,1.6,-999.0,42,-99.99,,,0.00,Acu-Link.com,2014-02-24 23:22:00,
2014-02-24 15:37:00,23.0,3.9,30.11,West,270,0.0,-999.0,43,-99.99,,,0.00,Acu-Link.com,2014-02-24 23:37:00,
2014-02-24 15:53:00,23.0,2.3,30.11,SSW,202,0.0,-999.0,40,-99.99,,,0.00,Acu-Link.com,2014-02-24 23:53:00,
2014-02-24 16:08:00,23.0,1.8,30.11,WNW,292,0.0,-999.0,39,-99.99,,,0.00,Acu-Link.com,2014-02-25 00:08:00,
2014-02-24 16:23:00,21.2,1.7,30.11,NE,45,0.0,-999.0,42,-99.99,,,0.00,Acu-Link.com,2014-02-25 00:23:00,
2014-02-24 16:38:00,19.4,1.1,30.11,NE,45,0.0,-999.0,44,-99.99,,,0.00,Acu-Link.com,2014-02-25 00:38:00,
2014-02-24 16:53:00,19.4,2.0,30.12,West,270,0.0,-999.0,46,-99.99,,,0.00,Acu-Link.com,2014-02-25 00:53:00,
2014-02-24 17:08:00,17.6,1.3,30.11,WNW,292,1.1,-999.0,48,-99.99,,,0.00,Acu-Link.com,2014-02-25 01:08:00,
2014-02-24 17:24:00,14.0,-1.2,30.12,North,0,1.6,-999.0,50,-99.99,,,0.00,Acu-Link.com,2014-02-25 01:24:00,
2014-02-24 17:39:00,12.2,-2.8,30.12,North,0,1.1,-999.0,50,-99.99,,,0.00,Acu-Link.com,2014-02-25 01:39:00,
2014-02-24 17:54:00,12.2,-2.0,30.12,NNE,22,0.0,-999.0,52,-99.99,,,0.00,Acu-Link.com,2014-02-25 01:54:00,
2014-02-24 18:09:00,10.4,-2.9,30.12,NE,45,1.6,-999.0,54,-99.99,,,0.00,Acu-Link.com,2014-02-25 02:09:00,
2014-02-24 18:24:00,10.4,-2.2,30.13,NE,45,0.0,-999.0,56,-99.99,,,0.00,Acu-Link.com,2014-02-25 02:24:00,
2014-02-24 18:39:00,8.6,-3.1,30.13,NE,45,1.6,-999.0,58,-99.99,,,0.00,Acu-Link.com,2014-02-25 02:39:00,
2014-02-24 18:54:00,8.6,-2.8,30.14,NE,45,0.0,-999.0,59,-99.99,,,0.00,Acu-Link.com,2014-02-25 02:54:00,
2014-02-24 19:09:00,5.0,-5.1,30.14,ENE,67,0.0,-999.0,62,-99.99,,,0.00,Acu-Link.com,2014-02-25 03:09:00,
2014-02-24 19:24:00,5.0,-4.2,30.15,NE,45,1.1,-999.0,65,-99.99,,,0.00,Acu-Link.com,2014-02-25 03:24:00,
2014-02-24 19:40:00,3.2,-4.9,30.14,ENE,67,0.0,-999.0,68,-99.99,,,0.00,Acu-Link.com,2014-02-25 03:40:00,
2014-02-24 19:55:00,3.2,-4.6,30.14,ESE,112,0.0,-999.0,69,-99.99,,,0.00,Acu-Link.com,2014-02-25 03:55:00,
2014-02-24 20:10:00,1.4,-6.1,30.14,South,180,0.0,-999.0,70,-99.99,,,0.00,Acu-Link.com,2014-02-25 04:10:00,
2014-02-24 20:25:00,1.4,-6.1,30.15,ENE,67,1.6,-999.0,70,-99.99,,,0.00,Acu-Link.com,2014-02-25 04:25:00,
2014-02-24 20:40:00,1.4,-5.8,30.15,ENE,67,0.0,-999.0,71,-99.99,,,0.00,Acu-Link.com,2014-02-25 04:40:00,
2014-02-24 20:55:00,-0.4,-7.2,30.16,East,90,0.0,-999.0,72,-99.99,,,0.00,Acu-Link.com,2014-02-25 04:55:00,
2014-02-24 21:10:00,-0.4,-7.2,30.16,East,90,0.0,-999.0,72,-99.99,,,0.00,Acu-Link.com,2014-02-25 05:10:00,
2014-02-24 21:25:00,-0.4,-6.7,30.17,East,90,1.1,-999.0,74,-99.99,,,0.00,Acu-Link.com,2014-02-25 05:25:00,
2014-02-24 21:40:00,-2.2,-8.1,30.17,East,90,0.0,-999.0,75,-99.99,,,0.00,Acu-Link.com,2014-02-25 05:40:00,
2014-02-24 21:55:00,-0.4,-6.1,30.17,SE,135,0.0,-999.0,76,-99.99,,,0.00,Acu-Link.com,2014-02-25 05:55:00,
2014-02-24 22:10:00,-2.2,-8.1,30.17,East,90,0.0,-999.0,75,-99.99,,,0.00,Acu-Link.com,2014-02-25 06:10:00,
2014-02-24 22:25:00,-2.2,-7.6,30.18,ESE,112,0.0,-999.0,77,-99.99,,,0.00,Acu-Link.com,2014-02-25 06:25:00,
2014-02-24 22:40:00,-4.0,-9.4,30.18,ESE,112,0.0,-999.0,77,-99.99,,,0.00,Acu-Link.com,2014-02-25 06:40:00,
2014-02-24 22:55:00,-4.0,-9.4,30.19,East,90,0.0,-999.0,77,-99.99,,,0.00,Acu-Link.com,2014-02-25 06:55:00,
2014-02-24 23:10:00,-4.0,-9.6,30.19,ENE,67,0.0,-999.0,76,-99.99,,,0.00,Acu-Link.com,2014-02-25 07:10:00,
2014-02-24 23:25:00,-4.0,-9.1,30.19,East,90,0.0,-999.0,78,-99.99,,,0.00,Acu-Link.com,2014-02-25 07:25:00,
2014-02-24 23:40:00,-5.8,-10.8,30.19,East,90,0.0,-999.0,78,-99.99,,,0.00,Acu-Link.com,2014-02-25 07:40:00,
2014-02-24 23:55:00,-5.8,-11.1,30.20,ESE,112,0.0,-999.0,77,-99.99,,,0.00,Acu-Link.com,2014-02-25 07:55:00,